Lexington Weather

Lexington, Massachusetts, USA

55°F
5/17/2024 11:39pm 
  • Lexington Conditions: Mostly cloudy
  • Temperature: 55.0°F / 12.8°CColder 1.5°F than last hour.
  • Dew Point: 50.4°FDecreased 0.3°Fsince last hour.
  • Relative Humidity: 84%Increased 3.0% since last hour.
  • Wind: Calm, 10-min avg: Calm, gust: None
  • Barometer: 29.96 in Steady
  • Visibility: 10 miles
  • Rain Today: 0.00 in
  •   

Regional Weather Roundup
for Boston, MA

        
000
ASUS41 KBOX 180210
RWRBOX

REGIONAL WEATHER ROUNDUP
NATIONAL WEATHER SERVICE BOSTON/NORTON MA
1000 PM EDT FRI MAY 17 2024

NOTE:  "FAIR" INDICATES FEW OR NO CLOUDS BELOW 12,000 FEET WITH NO 
SIGNIFICANT WEATHER AND/OR OBSTRUCTIONS TO VISIBILITY.

MAZALL-180300-
EASTERN MASSACHUSETTS
  
CITY           SKY/WX    TMP DP  RH WIND       PRES   REMARKS
BOSTON         MOCLDY    57  49  74 N8        30.01S                  
BEVERLY        PTCLDY    53  50  89 N3        30.02R                  
LAWRENCE       CLOUDY    55  49  80 NE6       30.04S                  
BEDFORD        MOCLDY    55  48  77 NE5       30.01R                  
NORWOOD        MOCLDY    57  50  77 CALM      30.01R                  
MARSHFIELD     CLOUDY    54  52  94 VRB6      30.00R                  
PLYMOUTH       CLOUDY    54  48  80 NE10      29.98R                  
TAUNTON        CLOUDY    57  48  72 VRB5      29.99R                  
NEW BEDFORD    CLOUDY    56  48  74 N7        29.97S                  
$$

MAZALL-180300-
CAPE COD AND THE ISLANDS
  
CITY           SKY/WX    TMP DP  RH WIND       PRES   REMARKS
FALMOUTH       MOCLDY    54  48  82 NE14      29.96S                  
HYANNIS        CLOUDY    53  47  79 NE12G21   29.95S                  
CHATHAM        CLOUDY    53  47  79 NE13G23   29.96S                  
PROVINCETOWN   CLOUDY    53  50  89 NE13G18   29.99S                  
NANTUCKET      CLOUDY    51  49  92 N23G33    29.92F                  
MARTHAS VNYRD  LGT RAIN  55  49  80 N15       29.94S                  
$$
 
MAZALL-180300-
CENTRAL AND WESTERN MASSACHUSETTS
  
CITY           SKY/WX    TMP DP  RH WIND       PRES   REMARKS
WORCESTER      CLOUDY    57  45  64 NE5       30.01R                  
FITCHBURG      CLOUDY    60  47  61 NE5       30.02S                  
ORANGE         CLOUDY    62  50  64 NE6       30.02R                  
SPRINGFIELD    MOCLDY    65  50  58 E3        29.97R                  
WESTFIELD      CLOUDY    65  47  52 E7        29.98R                  
NORTH ADAMS    CLOUDY    67  49  52 E14       29.97S                  
PITTSFIELD     CLOUDY    63  49  60 VRB5      29.97S                  
$$
 
RIZALL-180300-
RHODE ISLAND
  
CITY           SKY/WX    TMP DP  RH WIND       PRES   REMARKS
PROVIDENCE     MOCLDY    57  47  69 N13       29.99R                  
NEWPORT        CLOUDY    56  46  69 N10       29.97R                  
BLOCK ISLAND   CLOUDY    56  48  74 N10       29.96F                  
SMITHFIELD     MOCLDY    54  47  77 NE7       30.00S                  
WESTERLY       CLOUDY    62  45  53 NE7       29.96S                  
$$
 
CTZALL-180300-
CONNECTICUT
  
CITY           SKY/WX    TMP DP  RH WIND       PRES   REMARKS
BRADLEY INTL   MOCLDY    67  46  47 E9        29.98R                  
HARTFORD       CLOUDY    65  46  50 NE9       29.96S                  
PLAINVILLE     FAIR      66  47  51 NE6       29.96S                  
BRIDGEPORT     MOCLDY    60  55  83 E6        29.95S                  
DANBURY        CLOUDY    64  53  67 VRB3      29.97R                  
GROTON         CLOUDY    64  48  56 NE9       29.95F                  
NEW HAVEN      MOCLDY    61  54  77 CALM      29.96S                  
CHESTER        MOCLDY    63  50  63 NE5       29.96F                  
MERIDEN        MOCLDY    59  53  80 CALM      29.96S                  
WILLIMANTIC    CLOUDY    60  46  59 NE9       29.99R                  
OXFORD         MOCLDY    60  53  77 E5        29.98R                  
$$

MEZ002-015-021-024-NHZ003-005-008-011-012-014-VTZ005-008-180300-
NORTHERN NEW ENGLAND
  
CITY           SKY/WX    TMP DP  RH WIND       PRES   REMARKS
PORTLAND ME    MOCLDY    55  52  89 CALM      30.06R                  
BANGOR ME      MOCLDY    57  50  77 CALM      30.05R                  
CONCORD NH     CLOUDY    59  53  80 CALM      30.03R                  
MANCHESTER NH  CLOUDY    61  52  72 CALM      30.02R                  
NASHUA NH      CLOUDY    60  51  72 CALM      30.03R                  
PORTSMOUTH NH  PTCLDY    56  50  80 N6        30.03S                  
JAFFREY NH     CLOUDY    60  50  69 CALM      30.03R                  
KEENE NH       CLOUDY    62  48  60 E3        30.02R                  
BURLINGTON VT  MOCLDY    70  52  52 SE8       29.95R                  
MT. WASHINGTON MOCLDY    39  37  93 SE37        N/A  WCI  26          
$$

NYZ052-076-180300-
EASTERN NEW YORK
  
CITY           SKY/WX    TMP DP  RH WIND       PRES   REMARKS
ALBANY         MOCLDY    68  52  56 SE6       29.95S                  
NEW YORK CITY  MOCLDY    64  50  60 SE7       29.94R                  
$$
 
ANZALL-180300-
MARINE OBSERVATIONS
  
STATION/POSITION TIME  TEMP    WIND        PRES    VSBY  WAVE
                       AIR SEA DIR/SP/G                  HT/PER
                 (UTC) (F)     (DEG/KT/KT) (MB)    (MI)  (FT/S)
BOSTON BUOY      0150   53 53   20/ 12/ 16 1016.2R         4/ 8
BUZZARDS BAY     0100   56      30/ 17/ 18 1014.5R
NANTUCKET SOUND  0150   56 56   20/ 17/ 19 1013.5S         2/ 3
MASS BAY-STELLWA 0004   53 52   30/ 12/ 14 1016.1F  1 7/8  4/ 8
ISLE OF SHOALS   0100   54      40/ 10/ 12 1016.0F
S OF BLOCK IS    0156      49                N/A           5/ 8
$$

......................KEY.........................
  SKY/WX - SKY CONDITION/PRESENT WEATHER
  TMP    - TEMPERATURE IN FAHRENHEIT
  DWPT   - DEWPOINT IN FAHRENHEIT
  RH     - RELATIVE HUMIDITY IN PERCENT
  WIND   - DIRECTION AND SPEED IN MPH
  PRES   - MEAN SEA LEVEL PRESSURE IN INCHES OF HG
  WCI    - WIND CHILL INDEX
  VSB    - VISIBILITY IN MILES
  HX     - HEAT INDEX
  TC     - TEMPERATURE IN CELSIUS
  VRB    - VARIABLE WIND DIRECTION
  N/A    - NOT AVAILABLE
  
      

Other recent Regional Weather Roundups

Fri May 17, 11:10pm EDT

Fri May 17, 9:10pm EDT

Fri May 17, 8:10pm EDT

Fri May 17, 7:10pm EDT

Fri May 17, 6:10pm EDT

Fri May 17, 5:10pm EDT

Fri May 17, 4:10pm EDT

Fri May 17, 3:10pm EDT

Fri May 17, 2:10pm EDT

Fri May 17, 1:10pm EDT

Fri May 17, 12:10pm EDT

Fri May 17, 11:10am EDT

Fri May 17, 10:10am EDT

Fri May 17, 9:10am EDT

Fri May 17, 8:10am EDT

Fri May 17, 7:10am EDT

Fri May 17, 6:10am EDT

Fri May 17, 5:10am EDT

Fri May 17, 4:10am EDT

Fri May 17, 3:10am EDT

Fri May 17, 2:10am EDT

Fri May 17, 1:10am EDT

Fri May 17, 12:10am EDT

Thu May 16, 11:10pm EDT

Thu May 16, 10:10pm EDT

Thu May 16, 9:10pm EDT

Thu May 16, 8:10pm EDT

Thu May 16, 7:10pm EDT

Thu May 16, 6:10pm EDT

Thu May 16, 5:10pm EDT

Thu May 16, 4:10pm EDT

Thu May 16, 3:10pm EDT

Thu May 16, 2:10pm EDT

Thu May 16, 1:10pm EDT

Thu May 16, 12:10pm EDT

Thu May 16, 11:10am EDT

Thu May 16, 10:10am EDT

Thu May 16, 9:10am EDT

Thu May 16, 8:10am EDT

Thu May 16, 7:10am EDT

Thu May 16, 6:10am EDT

Thu May 16, 5:10am EDT

Thu May 16, 4:10am EDT

Thu May 16, 3:10am EDT

Thu May 16, 2:10am EDT

Thu May 16, 1:10am EDT

Thu May 16, 12:10am EDT

Wed May 15, 11:10pm EDT

Wed May 15, 10:10pm EDT

Wed May 15, 9:10pm EDT

Wed May 15, 8:10pm EDT

Wed May 15, 7:10pm EDT

Wed May 15, 6:10pm EDT

Wed May 15, 5:10pm EDT

Wed May 15, 4:10pm EDT

Wed May 15, 3:10pm EDT

Wed May 15, 2:10pm EDT

Wed May 15, 1:10pm EDT

Wed May 15, 12:10pm EDT

Wed May 15, 11:10am EDT

Wed May 15, 10:10am EDT

Wed May 15, 9:10am EDT

Wed May 15, 8:10am EDT

Wed May 15, 7:10am EDT

Wed May 15, 6:10am EDT

Wed May 15, 5:10am EDT

Wed May 15, 4:10am EDT

Wed May 15, 3:10am EDT

Wed May 15, 2:10am EDT

Wed May 15, 1:10am EDT

Wed May 15, 12:10am EDT

Tue May 14, 11:10pm EDT

Tue May 14, 10:10pm EDT

Tue May 14, 9:10pm EDT

Tue May 14, 8:10pm EDT

Tue May 14, 7:10pm EDT

Tue May 14, 6:10pm EDT

Tue May 14, 5:10pm EDT

Tue May 14, 4:10pm EDT

Tue May 14, 3:10pm EDT

Tue May 14, 2:10pm EDT

Tue May 14, 1:10pm EDT

Tue May 14, 12:10pm EDT

Tue May 14, 11:10am EDT

Tue May 14, 10:10am EDT

Tue May 14, 9:10am EDT

Tue May 14, 8:10am EDT

Tue May 14, 7:10am EDT

Tue May 14, 6:10am EDT

Tue May 14, 5:10am EDT

Tue May 14, 4:10am EDT

Tue May 14, 3:10am EDT

Tue May 14, 2:10am EDT

Tue May 14, 1:10am EDT

Tue May 14, 12:10am EDT

Mon May 13, 11:10pm EDT

Mon May 13, 10:10pm EDT

Mon May 13, 9:10pm EDT

Mon May 13, 8:10pm EDT

Mon May 13, 7:10pm EDT

Mon May 13, 6:10pm EDT

Mon May 13, 5:10pm EDT

Mon May 13, 4:10pm EDT

Mon May 13, 3:10pm EDT

Mon May 13, 2:10pm EDT

Mon May 13, 1:10pm EDT

Mon May 13, 12:10pm EDT

Mon May 13, 11:10am EDT

Mon May 13, 10:10am EDT

Mon May 13, 9:10am EDT

Mon May 13, 8:10am EDT

Mon May 13, 7:10am EDT

Mon May 13, 6:10am EDT

Mon May 13, 5:10am EDT

Mon May 13, 4:10am EDT

Mon May 13, 3:10am EDT

Mon May 13, 2:10am EDT

Mon May 13, 1:10am EDT

Mon May 13, 12:10am EDT

Sun May 12, 11:10pm EDT

Sun May 12, 10:10pm EDT

Sun May 12, 9:10pm EDT

Sun May 12, 8:10pm EDT

Sun May 12, 7:10pm EDT

Sun May 12, 6:10pm EDT

Sun May 12, 5:10pm EDT

Sun May 12, 4:10pm EDT

Sun May 12, 3:10pm EDT

Sun May 12, 2:10pm EDT

Sun May 12, 1:10pm EDT

Sun May 12, 12:10pm EDT

Sun May 12, 11:10am EDT

Sun May 12, 10:10am EDT

Sun May 12, 9:10am EDT

Sun May 12, 8:10am EDT

Sun May 12, 7:10am EDT

Sun May 12, 6:10am EDT

Sun May 12, 5:10am EDT

Sun May 12, 4:10am EDT

Sun May 12, 3:10am EDT

Sun May 12, 2:10am EDT

Sun May 12, 1:10am EDT

Sun May 12, 12:10am EDT

Sat May 11, 11:10pm EDT

Sat May 11, 10:10pm EDT

Sat May 11, 9:10pm EDT

Sat May 11, 8:10pm EDT

Sat May 11, 7:10pm EDT

Sat May 11, 6:10pm EDT

Sat May 11, 5:10pm EDT

Sat May 11, 4:10pm EDT

Sat May 11, 3:10pm EDT

Sat May 11, 2:10pm EDT

Sat May 11, 1:10pm EDT

Sat May 11, 12:10pm EDT

Sat May 11, 11:10am EDT

Sat May 11, 10:10am EDT

Sat May 11, 9:10am EDT

Sat May 11, 8:10am EDT

Sat May 11, 7:10am EDT

Sat May 11, 6:10am EDT

Sat May 11, 5:10am EDT

Sat May 11, 4:10am EDT

Sat May 11, 3:10am EDT

Sat May 11, 2:10am EDT

Sat May 11, 1:10am EDT

Sat May 11, 12:10am EDT